Location: Beadle
(51.4667°N, 109.0000°W)
Time: 05:45:32
(UTC+00:00)

Altair - Pass Details

Date: 29 May 2022
Orbit: 1501 x 1682 km, 47.2° (Epoch: 30 June)

Event Time Altitude Azimuth Distance (km) Brightness Sun altitude
Rises 21:24:34 0° 198° (SSW) 4,786 10.6 50.9°
Reaches altitude 10° 21:28:14 10° 187° (S) 3,832 10.1 50.5°
Maximum altitude 21:35:57 27° 135° (SE) 2,767 9.1 49.5°
Drops below altitude 10° 21:43:50 10° 83° (E) 3,934 9.4 48.4°
Sets 21:47:38 0° 72° (ENE) 4,936 9.8 47.9°
